Location: Charancey Bas
(47.4222°N, 4.6724°E)
Time: 16:58:04
(UTC+00:00)

Daily predictions for brighter satellites

Satellite Brightness Start Highest point End
(mag) Time Altitude Azimuth Time Altitude Azimuth Time Altitude Azimuth
SPOT 3 Rocket 3.7 19:52:59 10° SSE 19:58:07 79° WSW 20:03:19 10° NNW
STARLINK-1076 3.7 19:55:25 10° WNW 19:59:34 82° NNE 20:03:44 10° ESE
Cosmos 1975 3.1 19:56:43 10° N 20:00:43 52° ENE 20:04:39 10° SSE
NOSS 2-3 (C) 3.8 19:56:52 10° SSW 20:01:00 51° ESE 20:05:49 10° NE
Cosmos 1190 Rocket 4.1 19:55:47 10° NNW 20:01:00 71° ENE 20:06:13 10° SSE
Cosmos 2278 Rocket 2.9 19:57:23 10° SSE 20:02:21 32° ESE 20:07:21 10° NE
STARLINK-1206 3.8 19:58:39 10° SW 20:02:40 50° SE 20:06:41 10° ENE
Cosmos 614 Rocket 4.2 19:58:49 10° NNW 20:03:54 74° WSW 20:08:58 10° SSE
Cosmos 2034 Rocket 4.3 19:57:50 10° NNW 20:04:01 75° W 20:10:08 10° S
STARLINK-1092 3.7 20:00:22 10° WNW 20:04:32 87° NNE 20:08:41 10° ESE
Cosmos 1624 Rocket 4.2 20:00:14 10° S 20:05:23 54° ESE 20:10:35 10° NNE
Cosmos 1140 Rocket 3.6 20:00:16 10° NNW 20:05:29 70° ENE 20:10:41 10° SSE
USA 245 4.0 20:03:14 10° SE 20:06:11 27° ENE 20:08:42 10° NNE
Cosmos 1844 Rocket 3.5 20:01:54 10° SW 20:07:29 58° WNW 20:13:06 10° NNE
STARLINK-1205 3.7 20:03:36 10° SW 20:07:37 54° SE 20:11:41 10° ENE
Okean 1 3.4 20:05:02 10° S 20:09:05 89° ENE 20:13:10 10° N
STARLINK-1080 3.6 20:05:24 10° WNW 20:09:34 88° SSW 20:13:43 10° ESE
H-2A R/B 4.1 20:05:39 10° SSW 20:09:46 25° W 20:14:01 10° NW
STARLINK-1218 3.6 20:08:31 10° SW 20:12:35 59° SE 20:16:40 10° ENE
Meteor 1-19 Rocket 4.3 20:07:41 10° S 20:13:13 66° E 20:18:58 10° NNE
STARLINK-1090 3.6 20:10:21 10° WNW 20:14:30 83° SSW 20:18:39 10° ESE
Resurs 01 Rocket 1.7 20:10:08 10° SSE 20:14:36 84° WSW 20:19:05 10° NNW
Cosmos 1782 Rocket 3.6 20:11:19 10° N 20:15:50 88° E 20:20:18 10° S
Meteor 1-4 Rocket 2.7 20:12:48 10° S 20:16:09 48° E 20:19:30 10° NNE
Sich 1 Rocket 3.8 20:11:46 10° N 20:16:19 60° ENE 20:20:51 10° SSE
STARLINK-1254 3.6 20:13:27 10° SW 20:17:33 63° SE 20:21:39 10° ENE
Cosmos 1515 3.7 20:14:23 10° S 20:18:10 68° E 20:21:58 10° NNE
STARLINK-1089 3.6 20:15:20 10° WNW 20:19:29 78° SSW 20:23:30 11° SE
Cosmos 1371 Rocket 4.0 20:14:40 10° SSW 20:19:55 79° ESE 20:25:09 10° NNE
Abrixas rocket 2.0 20:18:04 10° W 20:21:01 80° N 20:23:59 10° ENE
STARLINK-1109 4.5 20:17:35 10° WNW 20:21:37 48° NNE 20:25:38 10° E
STARLINK-1231 3.6 20:18:25 10° SW 20:22:31 68° SSE 20:26:39 10° ENE
Cosmos 1703 Rocket 3.9 20:18:54 10° SSW 20:23:12 68° W 20:27:32 10° N
STARLINK-1107 3.7 20:20:19 10° WNW 20:24:28 73° SSW 20:28:17 12° SE
ATLAS CENTAUR R/B 3.5 20:22:29 10° W 20:24:30 19° NNW 20:26:01 10° NNE
ERS-1 Rocket 3.9 20:20:17 10° SE 20:24:49 35° ENE 20:29:22 10° N
ISS -3.0 20:21:35 10° WNW 20:24:54 50° NNE 20:28:12 10° E
STARLINK-1212 3.5 20:21:52 10° WSW 20:24:56 59° NNW 20:28:01 10° ENE
STARLINK-1234 4.0 20:22:10 10° W 20:25:16 49° NNW 20:28:23 10° ENE
STARLINK-1105 3.5 20:22:19 10° WSW 20:25:24 59° NNW 20:28:29 10° ENE
Meteor 1-18 Rocket 4.3 20:20:25 10° SSW 20:25:59 84° W 20:31:42 10° N
STARLINK-1247 3.5 20:23:12 10° WSW 20:26:17 58° NNW 20:29:23 10° ENE
STARLINK-1091 4.4 20:22:33 10° WNW 20:26:36 49° NNE 20:30:39 10° E
STARLINK-1227 3.5 20:23:40 10° WSW 20:26:44 58° NNW 20:29:48 10° ENE
Cosmos 2279 Rocket 4.4 20:20:47 10° N 20:26:51 50° ENE 20:32:41 11° SSE
Cosmos 1954 Rocket 4.1 20:21:56 10° NNW 20:27:12 71° ENE 20:32:15 11° SSE
STARLINK-1232 3.5 20:23:22 10° SW 20:27:30 73° SSE 20:31:38 10° ENE
STARLINK-1226 3.6 20:24:34 10° WSW 20:27:39 57° NNW 20:30:44 10° ENE
STARLINK-1215 3.6 20:25:28 10° WSW 20:28:32 56° NNW 20:31:37 10° ENE
STARLINK-1066 3.7 20:25:20 10° WNW 20:29:28 68° SSW 20:33:06 13° SE
Terra 3.3 20:26:10 10° ESE 20:29:58 24° ENE 20:33:48 10° N
Okean 2 Rocket 3.4 20:25:50 10° N 20:30:11 51° ENE 20:34:09 12° SSE
STARLINK-1217 3.7 20:27:17 10° WSW 20:30:21 55° NNW 20:33:25 10° ENE
STARLINK-1229 3.7 20:28:09 10° WSW 20:31:14 54° NNW 20:34:19 10° ENE
STARLINK-1072 4.3 20:27:32 10° WNW 20:31:36 51° NNE 20:35:39 10° E
STARLINK-1270 3.7 20:29:05 10° WSW 20:32:09 54° NNW 20:35:13 10° ENE
STARLINK-1208 3.5 20:28:20 10° SW 20:32:29 78° SSE 20:36:38 10° ENE
STARLINK-1189 3.8 20:30:53 10° W 20:33:56 52° NNW 20:37:00 10° ENE
STARLINK-1081 3.8 20:30:19 10° WNW 20:34:25 63° SW 20:37:52 14° SE
STARLINK-1209 4.3 20:31:28 10° W 20:34:34 43° NNW 20:37:42 10° NE
STARLINK-1188 3.8 20:31:49 10° W 20:34:52 52° NNW 20:37:56 10° ENE
STARLINK-1235 4.1 20:32:35 10° W 20:35:35 44° NNW 20:38:35 10° NE
Spot 2 Rocket 3.5 20:30:41 10° SSE 20:35:42 79° ENE 20:40:47 10° NNW
STARLINK-1187 4.0 20:32:58 10° W 20:35:57 47° NNW 20:38:58 10° NE
Lacrosse 5 2.2 20:31:10 10° NW 20:36:12 61° NNE 20:41:04 11° ESE
STARLINK-1096 4.3 20:32:32 10° WNW 20:36:37 54° NNE 20:40:41 10° E
STARLINK-1191 3.8 20:34:16 10° W 20:37:19 50° NNW 20:40:22 10° ENE
STARLINK-1271 3.5 20:33:17 10° WSW 20:37:25 83° SSE 20:41:36 10° ENE
STARLINK-1221 3.9 20:35:10 10° W 20:38:12 49° NNW 20:41:15 10° ENE
Meteor 1-12 Rocket 4.4 20:32:49 10° N 20:38:28 64° ENE 20:43:39 12° SSE
COSMOS 2406 3.4 20:32:44 10° NNW 20:38:32 73° WSW 20:44:03 11° SSE
STARLINK-1222 3.9 20:36:04 10° W 20:39:06 49° NNW 20:42:08 10° ENE
STARLINK-1070 3.9 20:35:17 10° WNW 20:39:22 59° SW 20:42:38 15° SE
Cosmos 1544 3.6 20:36:24 10° NNW 20:40:00 56° W 20:43:32 10° S
STARLINK-1214 3.9 20:37:01 10° W 20:40:02 48° NNW 20:43:05 10° ENE
Cosmos 676 Rocket 4.0 20:36:09 10° NNW 20:41:25 87° WSW 20:46:14 12° SSE
MetOp-B 4.3 20:36:14 10° S 20:41:35 79° WSW 20:46:59 10° NNW
STARLINK-1079 4.2 20:37:32 10° WNW 20:41:38 56° NNE 20:45:43 10° E
STARLINK-1154 3.6 20:38:16 10° WSW 20:42:26 88° SE 20:46:35 10° ENE
SAR-Lupe-2 3.6 20:38:55 10° NNE 20:42:29 60° ESE 20:46:03 10° S
Meteor 2-4 Rocket 3.6 20:37:28 10° S 20:42:49 73° E 20:48:10 10° NNE
Cosmos 2151 Rocket 4.0 20:39:16 10° N 20:43:41 50° ENE 20:47:15 15° SSE
Cosmos 371 Rocket 3.8 20:39:16 10° S 20:43:44 39° ESE 20:48:16 10° NE
Cosmos 1634 Rocket 4.1 20:37:52 10° N 20:44:12 81° W 20:50:31 10° S
STARLINK-1069 3.9 20:40:17 10° WNW 20:44:20 54° SW 20:47:25 16° SE
STARLINK-1243 4.4 20:41:25 10° SSW 20:44:58 28° SE 20:48:32 10° ENE
SL-4 R/B 1.9 20:43:01 10° NNW 20:46:08 46° NE 20:48:05 18° ESE
STARLINK-1116 4.1 20:42:30 10° WNW 20:46:36 59° NNE 20:50:40 10° E
STARLINK-1197 3.6 20:43:14 10° WSW 20:47:23 87° NNW 20:51:33 10° ENE
Cosmos 2056 Rocket 3.8 20:43:15 10° SSW 20:48:21 71° WNW 20:53:30 10° NNE
STARLINK-1085 4.0 20:45:17 10° WNW 20:49:19 50° SW 20:52:13 17° SSE
STARLINK-1236 4.3 20:46:17 10° SSW 20:49:56 30° SE 20:53:35 10° ENE
Meteor 1-13 Rocket 4.4 20:44:31 10° S 20:49:57 56° E 20:55:31 10° NNE
STARLINK-1198 3.7 20:48:14 10° WSW 20:52:24 82° NNW 20:56:33 10° ENE
STARLINK-1086 4.1 20:50:16 10° WNW 20:54:15 46° SW 20:56:59 18° SSE
Crew Dragon 0.5 20:54:22 10° WNW 20:56:25 53° NNE 20:57:34 22° E
STARLINK-1094 3.9 20:52:29 10° WNW 20:56:37 65° NNE 21:00:15 13° ESE
STARLINK-1199 3.8 20:53:12 10° WSW 20:57:20 78° NNW 21:01:31 10° ENE
STARLINK-1095 4.3 20:55:18 10° WNW 20:59:13 43° SW 21:01:47 19° SSE
STARLINK-1269 4.1 20:56:01 10° SSW 20:59:48 36° SE 21:03:36 10° ENE
NOSS 2-3 (E) 4.5 20:56:27 10° WSW 21:00:44 57° NW 21:05:56 10° NE
IGS 5A 3.7 20:57:51 13° S 21:01:26 70° WSW 21:05:36 10° NNW
STARLINK-1117 3.9 20:57:27 10° WNW 21:01:35 68° NNE 21:05:01 15° ESE
STARLINK-1210 3.8 20:58:13 10° WSW 21:02:21 74° NNW 21:06:31 10° ENE
STARLINK-1077 4.4 21:00:18 10° WNW 21:04:11 40° SW 21:06:34 20° SSE
CARTOSAT-1 3.6 21:01:34 19° SSE 21:04:39 69° ENE 21:08:58 10° N
STARLINK-1200 4.0 21:00:56 10° SSW 21:04:47 38° SE 21:08:39 10° ENE
STARLINK-1078 3.8 21:02:26 10° WNW 21:06:36 72° NNE 21:09:48 16° ESE
BREEZE M DEB (TANK) 3.0 21:01:12 10° SW 21:06:59 45° SSE 21:09:25 10° E
STARLINK-1219 3.9 21:03:12 10° WSW 21:07:19 70° NNW 21:11:28 10° ENE
Okean 3 3.8 21:03:11 10° SSW 21:07:27 68° W 21:11:46 10° N
STARLINK-1075 4.5 21:05:18 10° WNW 21:09:08 37° SW 21:11:20 21° SSE
STARLINK-1192 3.9 21:05:50 10° SSW 21:09:44 42° SE 21:13:40 10° ENE
STARLINK-1108 3.7 21:07:24 10° WNW 21:11:34 76° NNE 21:14:35 18° ESE
Cosmos 2082 Rocket 2.2 21:06:14 10° NNW 21:12:00 85° ENE 21:16:03 20° SSE
STARLINK-1211 4.0 21:08:12 10° WSW 21:12:19 66° NNW 21:16:28 10° ENE
SPOT 5 3.1 21:10:01 19° SSE 21:13:47 79° ENE 21:19:07 10° NNW
STARLINK-1244 3.8 21:10:44 10° SW 21:14:41 45° SE 21:18:39 10° ENE
Cosmos 1833 Rocket 3.1 21:10:45 10° NW 21:16:15 58° WSW 21:20:27 17° S
STARLINK-1071 3.6 21:12:23 10° WNW 21:16:33 81° NNE 21:19:22 20° ESE
Cosmos 1461 3.8 21:15:49 24° SE 21:17:04 28° ESE 21:20:46 10° NE
STARLINK-1245 4.1 21:13:12 10° WSW 21:17:18 63° NNW 21:21:26 10° ENE
Cosmos 1452 Rocket 3.5 21:13:50 10° SSW 21:19:06 80° ESE 21:24:26 10° NNE
STARLINK-1138 3.8 21:15:39 10° SW 21:19:38 49° SE 21:23:38 10° ENE
STARLINK-1110 3.6 21:16:28 10° WNW 21:20:38 84° NNE 21:23:16 22° ESE
Cosmos 1378 4.3 21:20:31 24° ESE 21:21:34 28° E 21:24:47 10° NNE
STARLINK-1233 4.2 21:18:12 10° WSW 21:22:17 60° NNW 21:26:25 10° ENE
Cosmos 1300 Rocket 4.2 21:18:35 10° NNW 21:22:55 53° W 21:26:24 15° SSW
USA 215 3.9 21:17:19 10° E 21:23:39 54° NNE 21:30:00 10° NW
Cosmos 1420 Rocket 4.3 21:18:41 10° SSW 21:23:52 68° WNW 21:29:04 10° NNE
Aureole 2 Rocket 3.1 21:24:15 29° ESE 21:24:26 29° ESE 21:27:11 10° NE
STARLINK-1143 3.7 21:20:34 10° SW 21:24:36 52° SE 21:28:38 10° ENE
STARLINK-1124 3.6 21:22:19 10° WNW 21:26:30 90° ESE 21:28:55 24° ESE
Cosmos 2369 Rocket 3.9 21:26:15 14° ESE 21:27:16 15° E 21:30:22 10° ENE
STARLINK-1204 4.3 21:23:13 10° W 21:27:18 57° NNW 21:31:24 10° ENE
Cosmos 304 Rocket 4.1 21:24:47 22° S 21:27:34 47° ESE 21:32:10 10° NNE
STARLINK-1203 3.6 21:24:08 10° SW 21:28:15 57° SE 21:32:22 10° ENE
STARLINK-1241 3.6 21:25:31 10° SW 21:29:34 57° SE 21:33:38 10° ENE
Cosmos 1805 4.0 21:26:19 10° N 21:30:01 39° ENE 21:31:34 27° ESE
Cosmos 1943 Rocket 3.4 21:28:55 20° ESE 21:30:19 22° E 21:34:28 10° NE
STARLINK-1122 3.5 21:27:19 10° WNW 21:31:29 85° SSW 21:33:42 27° ESE
SL-8 R/B 3.8 21:27:00 10° W 21:31:50 79° N 21:36:40 10° E
STARLINK-1238 4.4 21:28:14 10° W 21:32:18 55° NNW 21:36:24 10° ENE
STARLINK-1239 3.5 21:30:27 10° SW 21:34:31 61° SE 21:38:38 10° ENE
Cosmos 1066 Rocket 4.1 21:31:09 20° S 21:34:56 69° E 21:40:17 10° NNE
ERBS 2.7 21:32:33 10° WSW 21:35:50 62° NW 21:39:08 10° NE
STARLINK-1126 3.5 21:32:20 10° WNW 21:36:30 80° SSW 21:38:32 29° SE
Cosmos 332 Rocket 3.8 21:32:39 12° SSW 21:37:15 88° ESE 21:42:12 10° NNE
STARLINK-1201 4.5 21:33:15 10° W 21:37:18 52° NNW 21:41:23 10° ENE
STARLINK-1240 3.5 21:35:24 10° SW 21:39:30 66° SSE 21:43:38 10° ENE
Cosmos 1674 Rocket 3.6 21:36:52 18° SSW 21:40:00 76° W 21:44:26 10° N
STARLINK-1082 3.5 21:37:16 10° WNW 21:41:25 75° SSW 21:43:15 32° SE
Meteor 1-15 Rocket 4.4 21:36:26 10° NNW 21:42:24 82° W 21:46:14 23° S
CENTAUR R/B 4.1 21:35:50 10° NW 21:43:03 41° NNE 21:51:04 10° E
STARLINK-1114 4.5 21:39:32 10° WNW 21:43:35 49° NNE 21:47:15 12° E
STARLINK-1216 3.5 21:40:21 10° SW 21:44:28 71° SSE 21:48:36 10° ENE
Cosmos 972 Rocket 4.5 21:40:09 18° S 21:44:44 71° ESE 21:51:29 10° NNE
NOSS 2-2 (E) 3.7 21:45:11 36° SE 21:45:28 36° ESE 21:49:07 10° NE
Cosmos 1378 Rocket 3.5 21:43:25 23° S 21:46:09 85° W 21:50:35 10° N
Cosmos 2278 Rocket 3.3 21:40:50 10° SW 21:46:16 46° NW 21:51:45 10° NNE
STARLINK-1100 3.6 21:42:16 10° WNW 21:46:24 70° SSW 21:48:03 35° SE
STARLINK-1130 (DARKSAT) 4.4 21:44:32 10° WNW 21:48:36 51° NNE 21:52:04 14° E
NOSS 8 (E) 4.0 21:47:09 23° SW 21:48:58 84° SE 21:52:01 10° NE
STARLINK-1237 3.5 21:45:18 10° SW 21:49:26 76° SSE 21:53:35 10° ENE
STARLINK-1083 3.6 21:47:14 10° WNW 21:51:21 65° SSW 21:52:48 37° SE
Cosmos 2026 Rocket 4.5 21:48:12 26° SE 21:51:22 45° E 21:57:21 10° NNE
deb Kosmos-1763 3.9 21:47:47 10° NNW 21:51:25 86° ENE 21:52:28 44° SSE
Cosmos 1741 Rocket 4.3 21:46:38 10° NNW 21:51:46 59° WSW 21:54:36 26° S
STARLINK-1084 4.3 21:49:30 10° WNW 21:53:35 53° NNE 21:56:49 15° E
STARLINK-1202 3.5 21:50:17 10° SW 21:54:25 81° SSE 21:58:35 10° ENE
Cosmos 1437 Rocket 3.7 21:53:11 15° SW 21:55:59 43° WNW 21:59:39 10° N
STARLINK-1125 3.7 21:52:14 10° WNW 21:56:20 60° SW 21:57:36 40° SSE
Abrixas rocket 1.9 21:53:39 10° WNW 21:56:37 82° NNE 21:57:11 54° E
Okean 2 3.8 21:56:17 36° SE 21:57:26 48° E 22:01:27 10° NNE
STARLINK-1098 4.2 21:54:31 10° WNW 21:58:36 55° NNE 22:01:37 17° E
Cosmos 1975 Rocket 3.5 21:57:35 34° SE 21:58:59 46° E 22:03:15 10° NNE
SeaSat 1 2.7 21:54:43 10° NE 21:59:31 49° ESE 22:01:27 32° SSE
STARLINK-1109 3.8 21:57:14 10° WNW 22:01:18 56° SW 22:02:22 41° SSE
ISS -3.3 21:58:27 10° WNW 22:01:42 44° SSW 22:01:47 44° SSW
STARLINK-1123 4.1 21:59:30 10° WNW 22:03:35 58° NNE 22:06:24 19° E
ERS-1 Rocket 4.2 22:00:14 16° SSW 22:03:36 34° W 22:08:10 10° NNW
STARLINK-1246 3.5 22:00:13 10° WSW 22:04:22 89° NNW 22:08:32 10° ENE
Nadezhda 4 Rocket 4.1 22:00:38 18° SSW 22:05:21 72° W 22:11:31 10° N
STARLINK-1091 3.8 22:02:13 10° WNW 22:06:15 52° SW 22:07:09 42° S
Terra 2.5 22:04:56 24° SSW 22:07:27 46° W 22:12:04 10° NNW
STARLINK-1097 4.0 22:04:27 10° WNW 22:08:34 60° NNE 22:11:10 21° E
NOSS 2-2 (C) 3.2 22:08:29 48° SE 22:08:43 49° ESE 22:12:31 10° NE
STARLINK-1224 3.6 22:05:12 10° WSW 22:09:21 84° NNW 22:13:31 10° ENE
ATLAS 2AS CENTAUR R/B 4.1 22:08:00 22° SE 22:10:03 24° ESE 22:16:04 10° ENE
STARLINK-1072 3.9 22:07:13 10° WNW 22:11:13 48° SW 22:11:55 42° S
Cosmos 1242 Rocket 3.8 22:11:39 27° E 22:11:44 27° E 22:14:54 10° NNE
Cosmos 1110 Rocket 3.9 22:08:57 23° SSW 22:12:14 90° WNW 22:17:27 10° NNE
STARLINK-1099 4.0 22:09:27 10° WNW 22:13:35 63° NNE 22:15:57 24° E
STARLINK-1225 3.7 22:10:10 10° WSW 22:14:19 79° NNW 22:18:29 10° ENE
NOSS 3-2 (A) 4.2 22:08:03 10° NW 22:15:27 72° NE 22:21:24 21° SE
STARLINK-1096 4.0 22:12:14 10° WNW 22:16:11 44° SW 22:16:44 41° SSW
BREEZE-M DEB (TANK) 3.2 22:12:26 10° W 22:16:26 65° N 22:20:12 10° E
Cosmos 1766 3.4 22:14:31 10° NNW 22:18:28 67° W 22:19:37 43° SSW
STARLINK-1104 3.9 22:14:24 10° WNW 22:18:32 67° NNE 22:20:42 26° E
SL-4 R/B 3.8 22:17:34 10° W 22:18:46 12° WSW 22:18:54 12° WSW
Lacrosse 5 2.8 22:14:27 10° WNW 22:18:57 33° SW 22:20:15 29° SSW
STARLINK-1230 3.7 22:15:10 10° WSW 22:19:19 75° NNW 22:23:28 10° ENE
BREEZE-M DEB (TANK) 3.5 22:04:54 10° WSW 22:19:30 82° SSE 22:23:18 10° ENE
Spot 4 4.0 22:17:50 35° SE 22:19:45 65° ENE 22:24:35 10° N
Cosmos 1271 Rocket 4.0 22:20:18 26° E 22:20:28 26° E 22:23:45 10° NE
Okean 1 Rocket 4.2 22:16:22 10° NNW 22:20:30 37° W 22:22:37 23° SW
STARLINK-1079 4.1 22:17:15 10° WNW 22:21:09 41° SW 22:21:31 40° SSW
STARLINK-1144 3.8 22:19:23 10° WNW 22:23:32 71° NNE 22:25:30 30° ESE
USA 238 DEB 3.9 22:16:53 10° NW 22:24:06 77° NE 22:28:52 24° SE
USA 238 3.9 22:16:58 10° NW 22:24:11 77° NE 22:28:59 24° SE
STARLINK-1243 3.8 22:20:09 10° WSW 22:24:17 71° NNW 22:28:26 10° ENE
EXPRESS MD2 4.0 22:21:27 10° WSW 22:25:25 81° SSE 22:33:46 10° ENE
Cosmos 1733 3.2 22:21:54 10° NNW 22:25:43 71° W 22:26:32 51° SSW
STARLINK-1116 4.2 22:22:14 10° WNW 22:26:06 38° SW 22:26:17 37° SSW
STARLINK-1103 3.7 22:24:22 10° WNW 22:28:32 75° NNE 22:30:17 33° ESE
Cosmos 1707 3.9 22:28:29 28° E 22:28:44 28° E 22:32:06 10° NNE
SL-4 R/B 3.0 22:29:44 20° NNE 22:29:44 20° NNE 22:30:48 10° N
STARLINK-1236 3.9 22:25:10 10° WSW 22:29:18 67° NNW 22:33:27 10° ENE
Cosmos 1455 Rocket 2.9 22:27:04 10° N 22:31:26 87° E 22:32:36 48° SSE
Cosmos 1953 3.8 22:29:54 10° NNE 22:33:18 26° ENE 22:34:15 23° E
Cosmos 1486 Rocket 4.3 22:28:04 10° NNW 22:33:21 60° ENE 22:35:35 33° SE
STARLINK-1101 3.6 22:29:21 10° WNW 22:33:30 79° NNE 22:35:04 37° ESE
Cosmos 1331 Rocket 4.2 22:30:41 22° SW 22:34:00 67° WNW 22:39:11 10° NNE
Cosmos 1025 Rocket 3.7 22:34:49 35° ESE 22:35:27 37° E 22:39:26 10° NNE
COSMOS 2455 4.4 22:35:47 17° ESE 22:36:25 17° ESE 22:40:09 10° ENE
STARLINK-1102 3.6 22:34:19 10° WNW 22:38:29 83° NNE 22:39:51 42° ESE
STARLINK-1269 4.1 22:35:09 10° WSW 22:39:15 61° NNW 22:43:22 10° ENE
Cosmos 1302 Rocket 3.9 22:37:48 37° S 22:39:56 77° ESE 22:45:15 10° NNE
STARLINK-1111 3.5 22:39:19 10° WNW 22:43:29 88° NNE 22:44:38 47° ESE
Cosmos 1758 3.5 22:39:38 10° N 22:43:39 62° ENE 22:44:24 51° SE
STARLINK-1200 4.2 22:40:11 10° W 22:44:16 58° NNW 22:48:23 10° ENE
Cosmos 2297 4.4 22:39:18 11° SW 22:44:41 52° WNW 22:50:17 10° NNE
Cosmos 1092 Rocket 4.4 22:41:43 22° SSW 22:45:35 57° WNW 22:51:40 10° N
STARLINK-1073 3.5 22:44:18 10° WNW 22:48:27 87° SSW 22:49:25 52° ESE
Meteor 2-13 Rocket 4.5 22:45:42 32° SSW 22:48:48 82° W 22:55:01 10° N
Cosmos 1900 4.4 22:43:48 10° NW 22:48:49 71° WSW 22:50:18 45° S
STARLINK-1192 4.3 22:45:12 10° W 22:49:16 55° NNW 22:53:22 10° ENE
Aureole 3 Rocket 4.0 22:45:52 10° N 22:51:22 86° W 22:54:52 33° S
STARLINK-1121 3.5 22:49:16 10° WNW 22:53:26 82° SSW 22:54:11 58° SE
STARLINK-1244 4.4 22:50:12 10° W 22:54:16 53° NNW 22:58:20 10° ENE
Cosmos 2082 Rocket 4.2 22:51:55 10° WNW 22:55:18 16° W 22:57:54 12° SW
Cosmos 1461 4.2 22:52:06 10° WSW 22:56:01 40° NW 23:00:11 10° NNE
EO 1 Del DPAF 3.9 22:54:12 10° N 22:57:51 48° WNW 22:58:54 36° WSW
SL-4 R/B 4.0 22:59:59 21° ESE 22:59:59 21° ESE 23:02:15 10° E
STARLINK-1106 3.5 22:54:15 10° WNW 22:58:24 77° SSW 22:58:58 63° SSE
Cosmos 1536 Rocket 3.7 22:57:54 50° SE 22:58:37 58° E 23:02:54 10° NNE
STARLINK-1138 4.5 22:55:12 10° W 22:59:15 51° NNW 23:03:18 10° ENE
SL-27 R/B 2.4 22:55:53 10° NNW 22:59:29 71° WSW 22:59:33 70° WSW
ATLAS 5 CENTAUR R/B 2.8 23:00:58 26° ENE 23:00:58 26° ENE 23:02:05 10° ENE
Cosmos 1470 2.6 22:56:35 10° NNW 23:00:28 73° W 23:00:55 64° SSW
Meteor 2-8 Rocket 4.4 22:55:06 10° N 23:01:16 77° E 23:03:50 37° SSE
ALOS 2 2.5 23:01:01 53° SSE 23:02:01 82° ENE 23:06:26 10° NNW
Thor Agena Rocket 4.1 22:57:13 10° N 23:02:25 56° WNW 23:05:14 26° SW
STARLINK-1112 3.5 22:59:15 10° WNW 23:03:23 72° SSW 23:03:46 66° S
APEX 4.5 23:01:32 37° S 23:03:57 60° ESE 23:09:31 10° NE
USA 215 3.2 23:03:19 32° SSE 23:06:35 68° SW 23:13:07 10° WNW
Cosmos 1544 Rocket 3.9 23:03:13 10° NNW 23:07:28 54° W 23:08:21 45° SW
ATLAS CENTAUR R/B 4.2 23:07:29 10° N 23:08:01 11° NNE 23:08:34 10° NE
STARLINK-1128 3.5 23:04:15 10° WNW 23:08:22 67° SSW 23:08:33 65° SSW
Cosmos 1992 Rocket 4.2 23:08:31 44° SSE 23:09:47 56° ESE 23:14:53 10° NNE
Cosmos 2369 Rocket 2.1 23:08:00 36° SSW 23:10:29 90° WNW 23:16:11 10° NNE
COSMOS 2487 3.9 23:08:06 10° N 23:11:10 28° ENE 23:11:49 26° E
STARLINK-1113 3.6 23:09:13 10° WNW 23:13:19 62° SW 23:13:19 62° SW
Cosmos 1943 Rocket 2.4 23:10:23 26° SW 23:13:33 64° WNW 23:19:08 10° NNE
SL-8 R/B 3.7 23:09:37 10° WNW 23:14:22 60° SSW 23:15:04 53° SSE
S3M 3.9 23:10:32 10° N 23:16:42 84° W 23:19:11 39° S
NOSS 2-2 (D) 4.5 23:15:09 19° WSW 23:17:23 39° NW 23:21:20 10° NNE
STARLINK-1119 3.7 23:14:13 10° WNW 23:18:06 57° SW 23:18:06 57° SW
Cosmos 2292 Rocket 3.6 23:17:52 51° ESE 23:18:18 54° E 23:21:48 10° NNE
NOSS 3-2 (C) 4.0 23:14:15 10° NW 23:21:47 80° SW 23:26:35 29° SSE
Cosmos 1655 Rocket 3.9 23:20:26 38° S 23:23:03 86° W 23:29:21 10° N
STARLINK-1114 3.9 23:19:12 10° WNW 23:22:52 51° WSW 23:22:52 51° WSW
ATLAS CENTAUR R/B 2.8 23:25:24 26° ESE 23:25:24 26° ESE 23:28:28 10° ENE
Cosmos 1726 1.9 23:21:49 10° N 23:25:32 84° E 23:25:42 80° SE
STARLINK-1130 (DARKSAT) 4.1 23:24:13 10° WNW 23:27:40 46° WSW 23:27:40 46° WSW
NOSS 3-4 (A) 3.5 23:29:50 41° S 23:31:39 57° ESE 23:37:50 10° NE
NOSS 3-4 (C) 3.5 23:29:57 41° S 23:31:46 57° ESE 23:37:56 10° NE
Landsat 4 3.7 23:28:45 10° NNE 23:32:27 63° ESE 23:32:31 62° ESE
ATLAS 3B R/B 3.1 23:25:54 10° NW 23:32:37 61° NE 23:38:47 13° SE
STARLINK-1084 4.2 23:29:11 10° WNW 23:32:26 41° WSW 23:32:26 41° WSW
Cosmos 1606 Rocket 4.1 23:29:50 10° N 23:34:02 48° ENE 23:35:04 39° ESE
CENTAUR R/B 3.1 23:26:30 10° NW 23:34:33 79° SW 23:39:47 28° SSE
SeaSat 1 4.1 23:32:33 10° NNE 23:36:51 31° NW 23:41:07 10° WSW
STARLINK-1212 4.2 23:34:30 10° NW 23:37:28 39° NNE 23:38:54 24° ENE
STARLINK-1105 4.2 23:34:58 10° NW 23:37:56 40° NNE 23:39:21 24° ENE
STARLINK-1098 4.4 23:34:13 10° WNW 23:37:14 36° WSW 23:37:14 36° WSW
STARLINK-1234 3.9 23:35:05 10° WNW 23:38:12 48° NNE 23:39:05 36° ENE
STARLINK-1247 4.2 23:35:51 10° NW 23:38:49 40° NNE 23:40:17 24° ENE
STARLINK-1227 4.2 23:36:18 10° NW 23:39:15 40° NNE 23:40:35 25° ENE
RESURS DK-1 4.2 23:39:42 18° ESE 23:39:42 18° ESE 23:42:25 10° ENE
STARLINK-1226 4.2 23:37:12 10° NW 23:40:11 40° NNE 23:41:35 25° ENE
STARLINK-1215 4.1 23:38:05 10° NW 23:41:06 41° NNE 23:42:26 25° ENE
Cosmos 292 Rocket 4.4 23:39:18 32° WSW 23:41:16 52° WNW 23:46:02 10° NNE
STARLINK-1217 4.1 23:39:54 10° NW 23:42:54 42° NNE 23:44:10 26° ENE
Meteor 2-5 Rocket 4.4 23:41:51 32° SE 23:43:41 43° E 23:48:57 10° NNE
STARLINK-1229 4.1 23:40:46 10° NW 23:43:47 42° NNE 23:45:02 27° ENE
STARLINK-1270 4.1 23:41:41 10° NW 23:44:42 42° NNE 23:45:55 28° ENE
STARLINK-1189 4.0 23:43:28 10° NW 23:46:29 43° NNE 23:47:37 29° ENE
Cosmos 1242 Rocket 4.4 23:45:39 20° W 23:46:36 22° WNW 23:49:33 10° NNW
STARLINK-1188 4.0 23:44:24 10° NW 23:47:25 44° NNE 23:48:32 30° ENE
YAOGAN 11 4.0 23:46:53 58° S 23:47:41 77° WSW 23:52:02 10° NNW
STARLINK-1209 3.5 23:44:52 10° WNW 23:48:04 56° NNE 23:48:28 51° NE
STARLINK-1235 3.7 23:45:04 10° WNW 23:48:07 51° NNE 23:48:26 48° NE
STARLINK-1187 3.8 23:45:30 10° NW 23:48:30 47° NNE 23:49:05 41° ENE
Cosmos 2263 4.4 23:46:08 31° SW 23:48:47 65° WNW 23:54:24 10° NNE
STARLINK-1191 3.9 23:46:51 10° NW 23:49:51 45° NNE 23:50:47 33° ENE
STARLINK-1221 3.9 23:47:44 10° NW 23:50:45 45° NNE 23:51:40 33° ENE
Cosmos 1626 3.6 23:50:51 25° E 23:51:10 25° E 23:54:16 10° NNE
STARLINK-1222 3.9 23:48:38 10° NW 23:51:40 46° NNE 23:52:32 34° ENE
Cosmos 1300 4.4 23:48:44 10° NNE 23:51:59 26° ENE 23:53:09 22° ESE
STARLINK-1214 3.9 23:49:34 10° NW 23:52:35 46° NNE 23:53:26 35° ENE
Helios 1A 3.3 23:52:18 48° SW 23:52:46 51° W 23:56:52 10° NNW
Cosmos 1503 Rocket 4.3 23:47:44 10° NNW 23:52:55 54° WSW 23:54:13 43° SSW
Cosmos 1656 Rocket 3.7 23:51:32 38° SW 23:53:47 81° WNW 23:59:24 10° NNE
BREEZE-M DEB (TANK) 4.2 23:56:49 11° E 23:56:49 11° E 23:56:52 10° E
Cosmos 1271 Rocket 4.3 23:55:25 23° W 23:56:25 26° WNW 23:59:43 10° NNW
